Home > Weather > Townsville > Past weeks

Flag for Australia Past Weather in Townsville, Queensland, Australia — Yesterday and Last 2 Weeks

Now
64 °F

Clear.


Feels Like: 64 °F
Forecast: 65 / 76 °F
Wind: 6 mph from South

Location: Townsville Amo

Current Time: Jul 31, 2016 at 4:49:16 AM

Latest Report: Jul 31, 2016 at 4:00 AM


Visibility: N/A

Pressure: 29.98 "Hg

Humidity: 83%

Dew Point: 59 °F

Location of TownsvilleLocation

Past Weather in Townsville — Graph

°F

Townsville Temperature Yesterday

Maximum temperature yesterday: 79 °F (at 1:30 PM)
Minimum temperature yesterday: 59 °F (at 5:00 AM)
Average temperature yesterday: 69 °F

High & Low Weather Summary for the Past Weeks

 TemperatureHumidityPressure
High82 °F (Jul 25, 1:00 PM)100% (Jul 18, 2:00 AM)30.15 "Hg (Jul 18, 2:00 AM)
Low55 °F (Jul 29, 4:00 AM)29% (Jul 28, 10:30 AM)29.86 "Hg (Jul 17, 3:30 PM)
Average71 °F77%30.01 "Hg
* Reported Jul 16 3:00 AM — Jul 31 3:30 AM, Townsville, Weather by CustomWeather, © 2016

Note: Actual official high and low records may vary slightly from our data, if they occured in-between our weather recording intervals... More about our weather records

Advertising

Townsville Weather History for the Previous 24 Hours

Scroll right to see more
 ConditionsComfort  
Time TempWeatherWind HumidityBarometerVisibility
3:30 AM
Sun, Jul 31
66 °FClear.8 mph78%29.98 "HgN/A
3:00 AM64 °FClear.7 mph88%30.01 "HgN/A
2:00 AM66 °FPassing clouds.6 mph83%30.01 "HgN/A
1:00 AM66 °FPassing clouds.6 mph83%30.01 "HgN/A
12:00 AM68 °FPartly cloudy.7 mph83%30.04 "HgN/A
11:30 PM
Sat, Jul 30
68 °FMostly cloudy.8 mph83%30.04 "HgN/A
11:00 PM68 °FPassing clouds.7 mph83%30.04 "HgN/A
10:00 PM68 °FPassing clouds.7 mph83%30.04 "HgN/A
9:30 PM68 °FPassing clouds.7 mph83%30.04 "HgN/A
9:00 PM70 °FPassing clouds.7 mph78%30.04 "HgN/A
8:00 PM70 °FOvercast.7 mph73%30.04 "HgN/A
7:30 PM70 °FPassing clouds.7 mph73%30.04 "HgN/A
7:00 PM72 °FPassing clouds.8 mph65%30.01 "HgN/A
6:30 PM72 °FClear.10 mph65%30.01 "HgN/A
6:00 PM72 °FClear.12 mph65%29.98 "HgN/A
5:00 PM73 °FSunny.15 mph61%29.98 "HgN/A
4:00 PM75 °FSunny.15 mph57%29.98 "HgN/A
3:00 PM77 °FSunny.13 mph47%29.98 "HgN/A
2:00 PM79 °FSunny.13 mph42%29.98 "HgN/A
1:30 PM79 °FSunny.8 mph42%29.98 "HgN/A
1:00 PM77 °FSunny.9 mph44%30.01 "HgN/A
12:30 PM77 °FSunny.10 mph47%30.04 "HgN/A
12:00 PM77 °FSunny.3 mph44%30.04 "HgN/A
11:30 AM75 °FPassing clouds.6 mph44%30.07 "HgN/A
11:00 AM75 °FPassing clouds.6 mph44%30.07 "HgN/A
10:30 AM73 °FSunny.8 mph50%30.07 "Hg10 mi
10:00 AM72 °FSunny.5 mph53%30.09 "Hg10 mi
9:00 AM70 °FSunny.6 mph57%30.07 "Hg10 mi
8:00 AM64 °FSunny.5 mph73%30.07 "Hg10 mi
7:30 AM63 °FSunny.5 mph77%30.07 "Hg10 mi
7:00 AM59 °FSunny.6 mph88%30.07 "Hg10 mi
6:00 AM59 °FPassing clouds.5 mph88%30.04 "HgN/A
5:00 AM59 °FClear.7 mph88%30.01 "HgN/A
4:00 AM61 °FClear.8 mph83%30.04 "HgN/A
Weather by CustomWeather, © 2016

See weather overviewHow to use our weather pages